This is the latest recevied weather packets stored in our database for station/object DL2AKT-20. If no packets are shown the sender has not sent any weather packets the latest 10 day(s).
| Time | Temp. | Humidity | Pressure | Rain* | Wind** | Luminosity | Snow |
|---|---|---|---|---|---|---|---|
| 1777319368 | 15.56° C | 32% | 1024 hPa | - | - | - | - |
| 1777318468 | 16.11° C | 31% | 1024.2 hPa | - | - | - | - |
| 1777317568 | 16.11° C | 32% | 1024.2 hPa | - | - | - | - |
| 1777316668 | 16.67° C | 31% | 1024.3 hPa | - | - | - | - |
| 1777315771 | 16.67° C | 31% | 1024.2 hPa | - | - | - | - |
| 1777314871 | 18.33° C | 29% | 1023.9 hPa | - | - | - | - |
| 1777313971 | 17.78° C | 30% | 1023.8 hPa | - | - | - | - |
| 1777313071 | 17.78° C | 30% | 1023.8 hPa | - | - | - | - |
| 1777312171 | 17.78° C | 30% | 1023.8 hPa | - | - | - | - |
| 1777311271 | 17.78° C | 30% | 1023.8 hPa | - | - | - | - |
| 1777310370 | 18.33° C | 29% | 1023.7 hPa | - | - | - | - |
| 1777309470 | 18.89° C | 28% | 1023.8 hPa | - | - | - | - |
| 1777308570 | 19.44° C | 27% | 1023.8 hPa | - | - | - | - |
| 1777307670 | 20° C | 28% | 1023.8 hPa | - | - | - | - |
| 1777306770 | 21.11° C | 28% | 1023.8 hPa | - | - | - | - |
| 1777305870 | 20° C | 28% | 1023.9 hPa | - | - | - | - |
| 1777304970 | 20° C | 27% | 1024 hPa | - | - | - | - |
| 1777304070 | 21.11° C | 27% | 1023.9 hPa | - | - | - | - |
| 1777303170 | 21.11° C | 26% | 1024.1 hPa | - | - | - | - |
| 1777302269 | 20° C | 26% | 1024.1 hPa | - | - | - | - |
| 1777301368 | 20° C | 27% | 1024.1 hPa | - | - | - | - |
| 1777300468 | 19.44° C | 27% | 1024.2 hPa | - | - | - | - |
| 1777299568 | 19.44° C | 27% | 1024.5 hPa | - | - | - | - |
| 1777298669 | 20.56° C | 25% | 1024.5 hPa | - | - | - | - |
| 1777297768 | 21.67° C | 24% | 1024.6 hPa | - | - | - | - |
* Rain since midnight (hover to see other rain measurements)
** Current wind speed in m/s (hover to see current wind gust speed)